Probability
42 43 44 41 37 31 25 22 23 25 24 21 18 16 14 12 11 11 10 9 8 7 6 6 7 7 6 6 4 3 3 3 3 2 2 3 3 2 3 4 4 4 5
39 40 40 38 34 31 26 24 25 26 25 21 18 16 13 12 12 11 11 9 8 6 6 6 6 7 6 6 5 4 4 4 4 3 3 3 3 3 3 3 4 4 4
35 35 35 33 31 29 26 25 25 26 25 21 18 15 13 12 12 12 12 11 8 6 6 6 6 6 6 6 6 6 6 6 5 4 4 5 4 3 3 3 3 3 3
31 31 31 30 28 26 25 23 22 21 20 18 17 15 14 13 13 13 13 12 10 9 8 8 7 6 5 5 6 7 8 7 5 4 5 5 4 3 3 3 3 3 3
29 28 27 27 26 23 22 20 18 16 14 13 13 13 13 11 11 11 11 12 12 11 10 10 8 6 5 4 4 5 6 6 5 4 4 4 4 4 3 3 3 3 3
27 24 23 23 22 20 19 17 15 13 11 10 11 12 11 9 7 6 7 10 12 13 12 11 9 6 5 4 2 2 2 3 4 3 3 3 4 5 4 3 3 3 3
25 23 21 20 19 17 15 14 13 10 9 9 10 10 10 7 4 3 4 6 10 12 13 11 8 5 4 3 2 1 1 1 2 3 3 4 5 6 4 3 3 3 3
25 23 20 18 17 15 14 14 13 9 8 9 9 10 9 7 4 2 2 3 5 8 10 8 5 3 2 1 1 1 1 1 1 1 3 4 5 6 4 3 3 3 3
24 22 19 16 15 14 14 15 13 10 7 7 9 9 8 6 4 2 1 2 3 5 6 4 3 2 1 0 0 1 1 1 0 1 2 2 3 4 3 3 3 3 3
21 19 16 15 15 14 15 16 14 10 7 7 7 7 7 6 5 2 1 3 4 5 4 3 2 1 0 0 0 1 1 1 1 1 1 1 2 2 2 2 4 4 4
17 15 14 15 14 14 15 16 14 11 7 6 5 4 4 6 6 3 1 3 5 6 4 3 2 0 0 0 0 1 1 1 2 2 3 3 2 2 1 2 4 4 4
17 16 15 16 15 14 15 16 15 11 7 5 3 1 3 5 6 4 1 1 4 5 4 2 1 0 0 0 0 1 1 1 2 3 4 4 3 3 3 3 4 4 4
22 21 20 18 17 16 15 15 14 10 5 2 1 1 2 4 5 5 2 0 1 2 2 1 0 0 0 0 0 0 0 0 1 3 4 4 3 3 4 4 3 2 2
26 24 21 18 18 17 15 13 11 8 4 1 1 1 3 4 5 4 3 2 1 1 1 0 1 1 0 1 1 0 0 1 1 2 4 4 2 2 3 2 1 1 1
26 22 17 15 16 16 13 11 8 5 2 1 2 2 2 3 2 3 3 4 4 2 1 1 2 2 2 2 2 1 1 1 1 1 3 3 1 1 1 1 0 0 0
24 19 13 12 12 12 10 9 6 3 1 1 1 1 1 1 0 1 1 3 3 2 2 2 3 3 3 3 3 3 2 1 1 0 1 2 1 0 0 0 0 0 0
19 16 11 9 8 8 7 6 5 3 2 0 0 0 0 0 0 0 0 1 1 1 2 3 3 3 3 4 3 3 3 2 1 0 1 2 1 0 0 0 0 0 0
15 13 10 8 6 4 4 4 4 4 3 1 0 0 0 0 0 0 0 0 1 1 3 3 3 3 4 4 4 4 4 4 4 2 2 2 1 0 0 0 0 0 0
12 11 9 7 4 2 1 1 3 4 4 3 1 0 0 0 0 0 0 1 2 3 3 3 3 3 3 4 4 5 5 6 6 5 4 4 2 0 0 0 0 0 0
11 8 6 5 4 2 1 2 3 4 5 4 2 0 0 0 0 0 0 1 2 3 3 3 3 3 3 3 3 4 5 6 7 8 7 6 5 2 1 2 1 0 0
9 7 5 5 5 4 3 3 4 5 6 5 3 1 0 0 0 0 0 1 3 3 3 3 3 3 3 3 3 3 4 5 7 8 8 7 6 5 3 3 3 2 1
6 5 5 5 5 3 3 3 4 5 6 4 2 1 0 0 0 0 1 2 3 3 3 3 3 3 3 3 3 3 3 4 5 6 6 7 7 6 5 5 5 4 3
4 4 4 3 3 2 2 3 3 4 4 3 2 0 0 0 0 1 2 3 3 3 3 3 3 3 3 3 3 3 3 3 4 4 4 5 6 6 6 5 5 5 5
3 3 3 2 1 1 1 2 3 3 2 2 2 0 0 0 0 2 3 3 3 3 3 3 3 3 3 3 3 3 3 3 3 3 3 4 5 6 7 7 5 5 6
3 3 2 1 0 0 0 1 2 3 3 3 2 0 0 0 0 1 3 3 3 3 3 3 3 3 3 3 3 3 3 2 3 3 3 3 4 6 8 7 5 4 6
3 2 1 1 0 0 0 0 1 3 5 4 2 1 0 0 0 1 2 3 3 3 3 2 3 3 3 3 3 3 2 1 2 3 3 3 4 5 7 6 4 4 5
Wind_Speed
4 3 3 3 2 2 1 1 1 1 1 1 1 1 1 0 1 1 1 1 1 1 1 1 1 2 2 2 2 1 1 1 2 2 1 0 0 0 1 1 3 4 4
4 4 3 2 2 1 1 1 1 1 1 1 1 1 1 0 1 1 1 1 1 1 1 1 2 2 2 2 2 2 1 1 1 2 1 1 1 1 1 2 2 3 3
4 4 3 3 2 1 1 1 1 1 1 1 1 1 1 1 1 1 1 1 1 1 1 1 2 2 2 2 2 2 2 2 1 2 2 1 1 1 1 1 1 1 3
3 3 3 2 2 2 1 1 1 1 1 1 1 0 0 0 1 2 1 1 1 1 1 1 1 1 2 3 2 2 2 2 2 2 2 1 1 1 0 1 1 1 2
2 3 3 2 2 2 2 1 1 1 1 1 1 0 0 0 1 2 2 1 1 1 1 1 1 1 0 2 2 2 2 2 2 2 2 1 1 1 1 1 1 1 2
2 2 2 2 1 2 2 2 1 1 1 1 1 0 1 1 1 1 2 2 2 2 2 1 1 0 0 1 2 3 3 2 2 2 2 2 1 2 1 2 1 2 2
1 2 2 2 2 2 2 2 1 1 1 1 1 1 1 0 1 1 2 2 2 1 1 1 2 2 2 2 2 3 3 2 2 2 2 2 2 2 2 2 2 2 2
2 2 2 2 2 1 1 1 1 1 1 1 1 1 1 1 1 2 3 2 2 2 1 1 1 1 2 3 3 2 2 2 2 2 2 3 2 2 2 2 3 3 2
2 1 1 1 1 1 1 1 1 1 2 2 2 2 2 2 2 2 2 2 2 2 1 1 1 1 2 3 2 2 3 2 2 2 3 3 3 2 2 2 2 2 2
1 1 1 1 1 2 1 1 1 2 3 2 2 2 2 2 2 3 2 2 2 2 1 1 1 2 2 2 2 2 3 3 3 3 2 3 3 3 3 1 1 2 2
1 1 1 1 1 2 1 1 2 3 2 2 2 2 2 2 3 3 3 2 2 2 1 1 1 1 2 3 3 3 4 5 4 3 2 1 1 1 2 2 2 2 3
1 1 1 1 2 2 2 2 2 3 3 3 3 3 2 3 3 4 4 4 3 2 2 1 1 2 2 3 3 4 6 5 3 2 1 1 1 2 2 2 3 3 3
1 1 1 1 2 2 2 3 3 3 3 3 3 3 2 2 2 3 4 4 4 3 2 2 3 4 4 4 5 5 4 2 2 2 2 2 2 2 2 1 1 2 2
1 1 2 2 2 2 2 3 3 3 3 3 2 2 1 2 2 1 2 2 3 3 3 4 5 6 6 5 4 3 2 2 2 2 2 2 2 2 1 1 1 1 1
2 2 2 3 3 2 1 1 1 1 1 2 2 1 1 1 1 1 0 1 1 0 2 3 3 3 3 2 2 2 1 1 2 2 2 2 2 2 2 2 1 1 1
2 2 2 2 2 2 1 1 1 2 3 3 2 2 1 2 3 2 1 1 1 1 2 3 3 3 2 2 1 2 2 2 2 2 2 2 2 2 2 2 2 2 1
2 3 2 3 3 2 2 2 2 1 2 3 4 4 4 4 3 2 2 2 3 2 3 4 3 3 2 2 2 2 1 1 2 2 2 2 2 2 2 2 2 2 2
3 3 3 3 3 3 3 3 3 3 2 2 3 5 6 6 5 5 3 1 3 4 4 3 3 3 2 2 2 1 1 1 1 2 2 2 2 2 2 2 2 2 2
3 3 3 3 4 4 4 3 3 3 2 2 2 3 5 6 6 6 5 4 5 4 3 3 3 3 2 1 1 1 1 1 2 2 2 2 2 2 2 2 2 3 3
3 4 4 4 4 4 4 3 3 3 3 2 2 2 3 4 4 4 5 5 4 3 3 3 3 2 2 2 2 2 2 2 2 2 2 2 2 2 2 3 3 3 2
3 3 4 3 3 3 3 3 2 2 2 2 2 2 3 3 3 4 4 3 3 2 2 2 2 2 2 2 2 2 2 1 1 2 2 2 2 2 2 2 2 2 2
3 3 2 2 2 2 2 2 2 2 2 2 1 2 4 3 2 2 2 2 1 1 2 2 2 1 1 1 1 2 2 2 2 2 2 2 2 2 2 2 2 2 2
3 3 2 2 2 1 2 2 2 2 2 1 1 1 2 2 2 1 1 0 0 1 1 1 1 2 2 1 1 2 2 3 3 2 2 2 3 2 2 2 3 3 2
3 3 2 2 2 2 1 1 2 2 2 2 1 1 1 1 2 1 1 0 1 1 1 1 1 2 3 3 2 2 2 2 3 3 3 3 4 3 3 3 3 3 3
3 3 2 2 2 2 1 2 2 3 2 1 1 1 1 1 1 1 0 0 1 1 1 1 1 2 3 3 2 2 2 2 2 3 3 3 4 4 4 4 3 3 3
2 2 2 2 2 2 2 2 2 3 2 2 1 0 1 1 1 1 0 1 1 1 1 1 2 2 2 1 1 1 1 2 2 3 3 3 3 3 4 4 5 4 4
Wind_Direction
142 137 126 135 140 145 158 147 134 185 203 227 191 159 159 252 334 347 276 311 332 326 314 317 336 344 332 326 326 314 308 292 271 288 303 82 332 3 127 200 180 185 189
138 136 136 130 135 152 180 175 161 215 219 208 194 170 204 208 284 292 284 310 285 300 315 324 330 322 321 318 319 318 317 296 280 284 280 276 267 252 224 221 219 206 190
143 140 139 148 158 171 197 183 182 205 220 205 194 204 231 233 258 277 268 292 287 288 296 308 314 325 325 312 312 325 315 306 273 267 270 264 271 297 294 284 271 253 225
137 142 147 161 173 186 194 187 196 204 207 182 198 213 189 357 344 328 319 294 303 285 255 242 275 309 313 304 306 312 306 297 287 285 282 296 323 307 304 278 287 274 260
151 160 162 162 177 183 184 195 205 222 207 168 162 202 272 229 8 356 320 310 326 309 298 244 180 141 327 310 317 317 309 303 300 293 291 309 315 322 308 281 290 294 291
173 179 160 157 174 188 184 188 179 211 215 163 170 133 334 345 17 13 334 322 326 330 331 325 243 127 296 274 313 312 304 286 298 302 301 303 304 302 303 296 303 306 291
194 188 167 175 187 192 198 182 184 195 204 221 190 167 171 291 337 332 313 299 306 300 297 317 322 346 3 336 297 273 276 278 257 264 296 304 292 300 300 294 297 285 278
202 195 177 179 190 198 193 189 190 191 217 223 215 214 192 224 242 287 289 264 271 275 279 266 276 329 331 327 307 303 276 258 255 254 270 283 291 306 298 287 285 291 269
211 216 209 194 197 195 192 180 191 210 227 232 211 204 206 220 228 241 257 258 257 272 275 319 295 290 303 305 292 296 300 284 269 263 255 256 264 273 295 315 311 309 301
238 254 273 234 209 225 205 199 220 231 235 235 223 210 206 209 219 227 227 251 250 249 230 208 278 280 281 282 285 293 286 288 294 282 249 242 237 237 231 237 272 278 295
233 241 240 240 220 223 198 201 230 239 238 241 229 214 205 197 200 210 202 237 264 267 255 240 257 252 259 260 269 278 279 290 290 273 251 247 244 234 225 223 230 242 258
219 231 230 234 251 227 211 223 235 231 231 234 226 225 214 198 197 204 206 221 247 275 287 297 292 261 261 264 268 281 289 292 284 280 279 273 263 265 251 232 227 230 231
207 229 239 251 265 257 230 236 239 231 232 236 222 219 206 180 176 194 205 225 235 238 268 305 307 281 263 255 254 267 278 282 286 290 284 281 277 272 264 250 245 240 239
228 230 230 228 238 243 244 239 236 233 230 237 236 228 199 165 148 163 201 226 241 242 262 278 280 270 259 258 254 249 241 252 262 275 287 293 300 296 276 259 252 248 265
223 228 244 242 235 235 254 286 269 293 263 246 263 278 214 152 105 85 140 193 254 329 301 269 260 248 234 228 218 217 229 248 256 267 284 295 294 294 288 287 278 280 284
222 235 243 248 241 228 221 276 284 226 198 189 195 206 218 171 163 151 150 201 271 300 289 271 271 274 273 268 254 238 219 234 243 242 252 268 276 277 278 275 273 275 273
233 250 258 263 257 247 241 242 245 223 203 213 212 199 195 197 209 225 244 266 276 266 258 261 264 266 269 267 265 268 261 253 253 247 256 265 273 286 293 285 272 276 281
247 245 247 251 255 252 244 244 243 233 218 221 220 210 202 202 214 231 235 254 262 242 249 259 261 263 263 264 268 275 288 288 282 272 267 269 264 264 272 283 277 272 275
251 250 248 250 249 252 246 248 248 239 237 231 199 190 201 202 213 228 217 231 249 247 247 253 261 268 270 263 268 259 262 270 275 270 273 279 275 270 267 271 277 280 275
241 241 243 253 250 250 249 248 245 237 235 230 215 192 180 192 210 211 212 227 241 244 252 262 265 261 263 263 260 256 258 265 274 272 269 271 271 271 274 273 273 275 273
251 236 223 243 256 257 261 262 257 253 248 235 226 190 188 220 227 222 227 232 240 250 252 258 266 273 272 273 276 278 280 285 292 297 297 289 284 279 279 280 277 274 279
282 280 257 242 263 274 282 283 273 263 252 248 227 186 198 237 243 234 225 226 233 257 279 280 287 307 310 305 314 310 306 307 299 298 297 288 276 269 271 274 277 279 279
268 265 265 269 272 273 269 280 287 284 274 264 259 223 210 255 275 268 270 262 235 278 313 323 325 330 331 343 8 6 351 336 324 331 324 308 295 285 283 287 284 285 281
278 273 265 261 265 265 266 293 300 285 271 271 263 244 216 247 274 307 341 42 44 14 12 17 14 1 356 0 16 31 28 359 337 334 328 311 310 305 301 300 295 295 292
288 284 273 267 270 272 276 281 288 282 278 277 269 265 260 269 303 318 3 37 18 51 38 15 357 13 28 22 9 19 36 26 1 328 314 303 303 306 302 296 298 298 298
281 282 284 282 284 289 288 278 272 269 266 267 274 285 295 290 288 302 12 45 28 22 23 11 19 18 14 15 24 18 8 354 344 327 306 290 290 300 307 303 303 300 297